www.pogodaiklimat.ru

Погода и климат >> Архив погоды >> Россия >> Астраханская область >> Харабали


ПОГОДА в Харабали

  • Прогноз погоды в Харабали
  • Монитор погоды в Харабали

АРХИВ ПОГОДЫ в Харабали

Время (UTC), дата Ветер
(напр.,м/с)
 
Видим.   Явления Облачность Т
(С)
Тd
(С)
f
(%)
Тe
(С)
Тes
(С)
Комфортность P
(гПа)
Po
(гПа)
Тmin
(С)
Tmax
(С)
R
(мм)
R24
(мм)
S
(см)
06 11.06 В 2 20 км ясно +31.3 +0.3 14 +28 +41 жарко 1018.1 1019.9
09 11.06 В 2 20 км 1/0
[Ci fib]
+34.7 +1.5 12 +31 +50 жарко 1017.1 1018.9
12 11.06 Ю 3 20 км 3/1 600 м
[Cu hum Ci fib]
+34.2 +7.2 19 +32 +40 жарко 1015.4 1017.2
15 11.06 ЮВ 3 20 км 3/3 600 м
[Cu hum Ci fib]
+32.3 +6.8 20 +30 +31 жарко 1014.8 1016.6 +35.7
18 11.06 ЮВ 2 20 км 1/1 600 м
[Sc diur, vesp]
+26.2 +8.1 32 +26 +26 жарко 1015.8 1017.6
21 11.06 штиль 0 20 км ясно +19.1 +11.7 62 +20 +20 1015.4 1017.3
00 12.06 штиль 0 20 км ясно +16.8 +10.6 67 +17 +17 1014.9 1016.8
03 12.06 штиль 0 20 км 8/0
[Cs]
+24.6 +8.0 35 +25 +27 комфорт 1014.9 1016.7 +16.1
06 12.06 В 3 20 км 3/0
[Ci fib]
+34.1 +1.7 13 +31 +41 жарко 1014.4 1016.2
09 12.06 ЮВ 3 20 км 8/0
[Cs]
+35.9 +2.6 12 +33 +46 жарко 1013.6 1015.4
12 12.06 ЮЗ 3 20 км 8/0
[Cs]
+34.0 +7.9 20 +32 +40 жарко 1012.3 1014.1
15 12.06 ЮЗ 1 20 км 4/0
[Ac trans Ci fib]
+33.7 +11.3 26 +34 +35 очень
жарко
1011.4 1013.2 +36.2
18 12.06 штиль 0 20 км 1/0
[Ci fib]
+24.2 +17.8 67 +28 +28 душно 1011.9 1013.7
21 12.06 З 1 20 км ясно +20.5 +16.1 76 +25 +25 комфорт 1011.6 1013.5
00 13.06 штиль 0 20 км ясно +18.3 +11.9 66 +19 +19 1011.2 1013.1
03 13.06 З 1 20 км 3/0
[Ci fib]
+23.2 +14.2 57 +27 +29 душно 1010.8 1012.7 +18.2
06 13.06 СВ 2 20 км 1/0
[Ci fib]
+35.1 +1.4 12 +32 +44 жарко 1010.7 1012.5
09 13.06 С 2 20 км 6/6 600 м
[Cu hum]
+36.7 -0.1 10 +33 +40 жарко 1010.2 1012.0
12 13.06 СЗ 3 20 км 8/6 600 м
[Cb calv Ci fib]
+38.3 +0.4 9 +35 +38 очень
жарко
1009.3 1011.1
15 13.06 С 8-14
{15}
20 км в посл. час ливневой дождь 8/4 600 м
[Cb calv Ac cuf Ci]
+33.2 +8.5 22 +32 +32 жарко 1010.7 1012.5 +38.8 0.0
18 13.06 С 6-13
{16}
20 км {ливн. осадки} 6/0
[Ac cuf Cs]
+25.8 +9.2 35 +26 +26 жарко 1014.0 1015.8
21 13.06 СВ 4
{13}
20 км ясно +21.8 +6.0 36 +22 +22 комфорт 1016.3 1018.2
00 14.06 СВ 4
{10}
20 км 3/0
[Ac As]
+17.5 -1.0 28 +17 +17 1017.0 1018.9
03 14.06 СВ 5 20 км 1/0
[Ac As]
+16.4 +0.1 33 +16 +17 1018.9 1020.8 +15.4
06 14.06 СВ 5
{11}
20 км ясно +21.3 -0.7 23 +21 +27 комфорт 1019.8 1021.7
09 14.06 СВ 4-10
{10}
20 км 1/0
[Ci fib]
+25.0 -3.7 15 +23 +35 комфорт 1019.1 1021.0
12 14.06 С 4
{10}
20 км 3/0
[Ci]
+26.7 -4.6 12 +24 +31 комфорт 1018.0 1019.9
15 14.06 С 2 20 км ясно +26.7 -5.8 11 +24 +25 комфорт 1017.0 1018.8 +27.4
18 14.06 штиль 0 20 км 1/0
[Ci fib]
+16.8 +5.1 46 +17 +17 1017.5 1019.4
21 14.06 штиль 0 20 км ясно +13.6 +4.6 54 +13 +13 1016.6 1018.5
00 15.06 штиль 0 20 км ясно +12.0 +5.7 65 +12 +12 1016.1 1018.1
03 15.06 штиль 0 20 км ясно +16.6 +7.9 56 +17 +20 1016.0 1017.9 +10.5
06 15.06 ЮЗ 2 20 км ясно +25.0 +2.4 23 +24 +36 комфорт 1015.1 1017.0
09 15.06 З 3 20 км ясно +28.5 -0.1 16 +26 +42 жарко 1014.0 1015.8
12 15.06 З 3 20 км ясно +31.0 +1.3 15 +28 +38 жарко 1011.9 1013.8
15 15.06 З 1 20 км ясно +30.9 +8.1 24 +30 +32 жарко 1010.3 1012.1 +32.0
18 15.06 штиль 0 20 км ясно +21.3 +11.0 52 +23 +23 комфорт 1010.2 1012.1
21 15.06 ЮЗ 2 20 км 8/8 600 м
[Sc]
+21.8 +10.3 48 +24 +24 комфорт 1010.3 1012.2
00 16.06 ЮЗ 2 20 км 10/10 600 м
[Sc]
+20.5 +9.3 49 +23 +23 комфорт 1009.8 1011.7
03 16.06 ЮЗ 1 20 км 3/3 600 м
[Sc]
+20.9 +11.3 54 +24 +26 комфорт 1009.9 1011.7 +18.8
06 16.06 СВ 3 20 км 5/3 600 м
[Cb calv Ac cast Cc]
+29.8 +5.0 21 +28 +34 жарко 1010.0 1011.8
09 16.06 СВ 2 20 км 6/3 600 м
[Cb calv Ci]
+32.5 +9.2 24 +32 +44 жарко 1009.7 1011.5
12 16.06 СВ 2 20 км 5/3 600 м
[Cb calv Ac cuf Cc]
+33.6 +9.0 22 +32 +39 жарко 1008.3 1010.1
15 16.06 С 3
{10}
20 км 8/4 600 м
[Cb calv Ac As Cs]
+30.2 +10.3 29 +30 +31 жарко 1007.8 1009.6 +33.9
18 16.06 В 1 10 км гроза, ливневой дождь 9/9 600 м
[Cb cap]
+25.3 +15.4 54 +28 +28 жарко 1009.3 1011.1
21 16.06 СВ 1 20 км {гроза, ливн. осадки} 4/4 600 м
[Cb calv]
+20.7 +15.1 70 +25 +25 комфорт 1008.0 1009.9
00 17.06 З 1 20 км {гроза, ливн. осадки} 9/9 600 м
[Cb calv]
+21.3 +16.8 76 +25 +25 комфорт 1009.4 1011.3
03 17.06 С 4 20 км {ливн. осадки} 8/4 600 м
[Cb calv Ac As Cs]
+20.1 +16.1 78 +23 +23 комфорт 1009.7 1011.6 +19.6 0.3
06 17.06 В 4 20 км {ливн. осадки} 8/5 600 м
[Cb calv Ac As Cs]
+25.3 +12.3 44 +27 +30 жарко 1009.4 1011.3
09 17.06 СЗ 3 20 км 9/5 600 м
[Cb calv Ac As Cs]
+29.3 +11.5 33 +30 +34 жарко 1010.6 1012.4
12 17.06 В 2 20 км гроза без осадков {ливн. осадки} 9/8 600 м
[Cb cap Cs]
+22.5 +16.2 68 +27 +29 душно 1010.5 1012.4
15 17.06 С 2 20 км гроза без осадков 9/4 600 м
[Cb calv Ac cuf Ci fib]
+27.9 +9.4 31 +28 +29 жарко 1009.6 1011.5 +30.2 1
18 17.06 Ю 2 20 км {гроза} 8/6 600 м
[Cb calv Ac As]
+21.1 +17.3 79 +25 +25 комфорт 1011.4 1013.3
21 17.06 В 1 20 км ясно +19.0 +14.1 73 +21 +21 комфорт 1011.6 1013.5
00 18.06 штиль 0 20 км ясно +16.8 +13.9 83 +17 +17 1011.0 1012.9

 

Местоположение метеостанции Харабали (Астраханская область, Россия): широта 47.40 долгота 47.25 высота над уровнем моря -17 м.

В архиве по умолчанию представлена погода в Харабали за последнюю неделю. Архивные данные за месяц целиком и за предыдущие месяцы, начиная с января 2011 года, Вы можете получить, выбрав интересующий диапазон дат из раскрывающегося списка и нажав кнопку "Ввод!".


*Определитесь, кто Вы:
робот инопланетянин человек

Внимание! Время в таблицах - всемирное. Для получения местного времени необходимо прибавить поправку, которая равна 4 ч.

Смотрите также архив погоды в соседних городах и на ближайших метеорологических станциях:

Погода в Досанге (Астраханская область, Россия) (74 км)
Погода в Юсте (Калмыкия, Россия) (76 км)
Погода в Верхнем Баскунчаке (Астраханская область, Россия) (99 км)
Погода в Черный Яр (Астраханская область, Россия) (113 км)
Погода в Жанауштогане (Атырауская область, Казахстан) (129 км)
Погода в Астрахани (Астраханская область, Россия) (136 км)
Погода в Утте (Калмыкия, Россия) (148 км)
Погода в Урде (Западно-Казахстанская область, Казахстан) (153 км)
Погода в Зеленге (Астраханская область, Россия) (171 км)
Погода в Ганюшкино (Атырауская область, Казахстан) (177 км)

Пояснения к столбцам:

Ветер - указаны скорость ветра в м/с - средняя за 10 мин, порывы в срок и между сроками (в фигурных скобках) и направление, откуда дует ветер: С - северный, СВ - северо-восточный, В - восточный, ЮВ - юго-восточный, Ю - южный, ЮЗ - юго-западный, З - западный, СЗ - северо-западный.
Видимость - горизонтальная дальность видимости в метрах или километрах. При видимости от 1 до 10 км при отсутствии осадков обычно наблюдается дымка, при ухудшении видимости до 1 км и менее - туман. В сухую погоду видимость может ухудшаться дымом, пылью или мглою.
Явления - указаны атмосферные явления, наблюдавшиеся в срок или в последний час перед сроком; фигурными скобками обозначены явления, наблюдавшиеся между сроками (за 1-3 часа до срока); квадратными скобками обозначены град или гололедные отложения с указанием их диаметра в мм.
Облачность - указаны через наклонную черту общая и нижняя облачность в баллах и высота нижней границы облаков в метрах; квадратными скобками обозначены формы облаков: Ci - перистые, Cs - перисто-слоистые, Cc - перисто-кучевые, Ac - высококучевые, As - высокослоистые, Sc - слоисто-кучевые, Ns - слоисто-дождевые, Cu - кучевые, Cb - кучево-дождевые. Подробнее классификацию облаков см. в Атласе облаков (PDF).
T - Температура воздуха - температура, измеренная на высоте 2 м над землей.
Td - Температура точки росы - температура, при понижении до которой содержащийся в воздухе водяной пар достигнет насыщения.
f - Относительная влажность воздуха - влажноcть воздуха, измеренная на высоте 2 м над землей.
Te - Эффективная температура - температура, которую ощущает одетый по сезону человек в тени. Характеристика душности погоды. При расчете учитывается влияние влажности воздуха и скорости ветра на теплоощущения человека.
Tes - Эффективная температура на солнце - температура, которую ощущает человек, с поправкой на солнечный нагрев. Характеристика знойности погоды. Зависит от высоты солнца над горизонтом, облачности и скорости ветра. Ночью, в пасмурную погоду, а также при ветре 12 м/с и более поправка равна нулю.
P - Атмосферное давление - приведенное к уровню моря атмосферное давление.
Po - Атмосферное давление - измеренное на уровне метеостанции атмосферное давление.
Tmin - Минимальная температура - минимум температуры воздуха на высоте 2 м над землей.
Tmax - Максимальная температура - максимум температуры воздуха на высоте 2 м над землей.
R - Количество осадков - Количество выпавших осадков за период времени, мм. При наведении курсора мыши на число - период времени, за который выпало указанное количество осадков.
R24 - Количество осадков - Количество выпавших осадков за 24 часа, мм.
S - Снежный покров - Высота снежного покрова, см. При наведении курсора мыши на число - состояние снежного покрова и степень покрытия местности в баллах.